Time,TemperatureF,DewpointF,PressureIn,WindDirection,WindDirectionDegrees,WindSpeedMPH,WindSpeedGustMPH,Humidity,HourlyPrecipIn,Conditions,Clouds,dailyrainin,SoftwareType,DateUTC
2013-04-12 00:00:00,71.8,64.2,29.72,WSW,251,0.0,7.0,77,0.00,,,0.00,WUHU216DAVISVP2,2013-04-12 04:00:00,
2013-04-12 00:05:00,71.8,64.2,29.72,SE,130,0.0,7.0,77,0.00,,,0.00,WUHU216DAVISVP2,2013-04-12 04:05:00,
2013-04-12 00:10:00,71.8,64.3,29.72,East,86,4.0,6.0,77,0.00,,,0.00,WUHU216DAVISVP2,2013-04-12 04:10:00,
2013-04-12 00:15:00,71.8,64.3,29.72,ESE,112,0.0,6.0,77,0.00,,,0.00,WUHU216DAVISVP2,2013-04-12 04:15:00,
2013-04-12 00:20:00,71.6,64.1,29.72,WSW,243,0.0,4.0,77,0.00,,,0.00,WUHU216DAVISVP2,2013-04-12 04:20:00,
2013-04-12 00:25:00,71.6,64.1,29.72,SSW,196,0.0,1.0,77,0.00,,,0.00,WUHU216DAVISVP2,2013-04-12 04:25:00,
2013-04-12 00:30:00,71.6,64.1,29.72,West,265,1.0,7.0,77,0.00,,,0.00,WUHU216DAVISVP2,2013-04-12 04:30:00,
2013-04-12 00:35:00,71.5,64.0,29.72,NW,313,4.0,7.0,77,0.00,,,0.00,WUHU216DAVISVP2,2013-04-12 04:35:00,
2013-04-12 00:40:00,71.3,63.8,29.72,SE,126,1.0,7.0,77,0.00,,,0.00,WUHU216DAVISVP2,2013-04-12 04:40:00,
2013-04-12 00:45:00,71.3,63.8,29.73,ENE,69,0.0,9.0,77,0.00,,,0.00,WUHU216DAVISVP2,2013-04-12 04:45:00,
2013-04-12 00:50:00,71.1,64.0,29.73,NW,323,1.0,9.0,78,0.00,,,0.00,WUHU216DAVISVP2,2013-04-12 04:50:00,
2013-04-12 00:55:00,71.1,64.0,29.73,ESE,121,0.0,6.0,78,0.00,,,0.00,WUHU216DAVISVP2,2013-04-12 04:55:00,
2013-04-12 01:00:00,71.1,64.0,29.72,North,10,0.0,1.0,78,0.00,,,0.00,WUHU216DAVISVP2,2013-04-12 05:00:00,
2013-04-12 01:05:00,71.1,64.0,29.72,SSW,203,4.0,4.0,78,0.00,,,0.00,WUHU216DAVISVP2,2013-04-12 05:05:00,
2013-04-12 01:10:00,71.1,64.0,29.72,South,184,0.0,4.0,78,0.00,,,0.00,WUHU216DAVISVP2,2013-04-12 05:10:00,
2013-04-12 01:15:00,71.1,64.0,29.72,ENE,76,1.0,7.0,78,0.00,,,0.00,WUHU216DAVISVP2,2013-04-12 05:15:00,
2013-04-12 01:20:00,70.9,63.8,29.72,SSW,212,0.0,7.0,78,0.00,,,0.00,WUHU216DAVISVP2,2013-04-12 05:20:00,
2013-04-12 01:25:00,70.9,63.8,29.72,NW,305,0.0,2.0,78,0.00,,,0.00,WUHU216DAVISVP2,2013-04-12 05:25:00,
2013-04-12 01:31:00,70.9,63.8,29.71,East,88,0.0,0.0,78,0.00,,,0.00,WUHU216DAVISVP2,2013-04-12 05:31:00,
2013-04-12 01:36:00,70.9,63.7,29.71,East,99,0.0,9.0,78,0.00,,,0.00,WUHU216DAVISVP2,2013-04-12 05:36:00,
2013-04-12 01:41:00,70.9,63.7,29.71,ESE,107,1.0,9.0,78,0.00,,,0.00,WUHU216DAVISVP2,2013-04-12 05:41:00,
2013-04-12 01:46:00,70.9,63.7,29.71,SSW,205,6.0,7.0,78,0.00,,,0.00,WUHU216DAVISVP2,2013-04-12 05:46:00,
2013-04-12 01:51:00,70.9,63.7,29.71,North,4,7.0,7.0,78,0.00,,,0.00,WUHU216DAVISVP2,2013-04-12 05:51:00,
2013-04-12 01:56:00,70.9,63.7,29.71,SE,133,1.0,7.0,78,0.00,,,0.00,WUHU216DAVISVP2,2013-04-12 05:56:00,
2013-04-12 02:01:00,70.9,63.7,29.70,SSE,158,0.0,7.0,78,0.00,,,0.00,WUHU216DAVISVP2,2013-04-12 06:01:00,
2013-04-12 02:06:00,70.9,63.7,29.70,ESE,114,0.0,4.0,78,0.00,,,0.00,WUHU216DAVISVP2,2013-04-12 06:06:00,
2013-04-12 02:11:00,70.9,63.8,29.70,NE,56,6.0,6.0,78,0.00,,,0.00,WUHU216DAVISVP2,2013-04-12 06:11:00,
2013-04-12 02:16:00,70.9,63.8,29.69,WSW,244,7.0,7.0,78,0.00,,,0.00,WUHU216DAVISVP2,2013-04-12 06:16:00,
2013-04-12 02:21:00,70.9,63.8,29.69,WSW,244,7.0,7.0,78,0.00,,,0.00,WUHU216DAVISVP2,2013-04-12 06:21:00,
2013-04-12 02:26:00,70.9,63.8,29.69,SSW,199,8.0,8.0,78,0.00,,,0.00,WUHU216DAVISVP2,2013-04-12 06:26:00,
2013-04-12 02:31:00,70.9,64.2,29.69,ESE,109,2.0,8.0,79,0.00,,,0.00,WUHU216DAVISVP2,2013-04-12 06:31:00,
2013-04-12 02:36:00,70.9,64.2,29.69,South,174,4.0,8.0,79,0.00,,,0.00,WUHU216DAVISVP2,2013-04-12 06:36:00,
2013-04-12 02:42:00,70.9,64.2,29.69,SSW,213,0.0,8.0,79,0.00,,,0.00,WUHU216DAVISVP2,2013-04-12 06:42:00,
2013-04-12 02:47:00,70.9,64.2,29.69,SSE,155,1.0,8.0,79,0.00,,,0.00,WUHU216DAVISVP2,2013-04-12 06:47:00,
2013-04-12 02:52:00,70.9,64.2,29.69,ESE,117,2.0,8.0,79,0.00,,,0.00,WUHU216DAVISVP2,2013-04-12 06:52:00,
2013-04-12 02:57:00,71.1,64.4,29.69,SE,137,0.0,7.0,79,0.00,,,0.00,WUHU216DAVISVP2,2013-04-12 06:57:00,
2013-04-12 03:02:00,70.9,63.7,29.68,ESE,121,0.0,8.0,78,0.00,,,0.00,WUHU216DAVISVP2,2013-04-12 07:02:00,
2013-04-12 03:07:00,70.9,64.1,29.68,East,97,1.0,9.0,79,0.00,,,0.00,WUHU216DAVISVP2,2013-04-12 07:07:00,
2013-04-12 03:12:00,70.9,63.7,29.68,West,261,1.0,9.0,78,0.00,,,0.00,WUHU216DAVISVP2,2013-04-12 07:12:00,
2013-04-12 03:17:00,70.9,63.7,29.68,SSE,160,4.0,8.0,78,0.00,,,0.00,WUHU216DAVISVP2,2013-04-12 07:17:00,
2013-04-12 03:22:00,70.9,63.7,29.68,SW,222,4.0,8.0,78,0.00,,,0.00,WUHU216DAVISVP2,2013-04-12 07:22:00,
2013-04-12 03:27:00,71.1,63.9,29.68,WSW,257,0.0,8.0,78,0.00,,,0.00,WUHU216DAVISVP2,2013-04-12 07:27:00,
2013-04-12 03:32:00,70.9,63.8,29.67,East,93,1.0,7.0,78,0.00,,,0.00,WUHU216DAVISVP2,2013-04-12 07:32:00,
2013-04-12 03:37:00,70.9,63.8,29.67,ESE,106,1.0,9.0,78,0.00,,,0.00,WUHU216DAVISVP2,2013-04-12 07:37:00,
2013-04-12 03:42:00,71.1,64.0,29.67,South,186,1.0,13.0,78,0.00,,,0.00,WUHU216DAVISVP2,2013-04-12 07:42:00,
2013-04-12 03:47:00,71.1,63.6,29.66,ESE,119,0.0,13.0,77,0.00,,,0.00,WUHU216DAVISVP2,2013-04-12 07:47:00,
2013-04-12 03:52:00,70.9,63.4,29.66,ENE,76,0.0,8.0,77,0.00,,,0.00,WUHU216DAVISVP2,2013-04-12 07:52:00,
2013-04-12 03:57:00,70.9,63.4,29.66,WSW,237,0.0,8.0,77,0.00,,,0.00,WUHU216DAVISVP2,2013-04-12 07:57:00,
2013-04-12 04:02:00,70.9,63.4,29.66,SSE,155,0.0,8.0,77,0.00,,,0.00,WUHU216DAVISVP2,2013-04-12 08:02:00,
2013-04-12 04:07:00,70.9,63.4,29.66,SSW,206,0.0,6.0,77,0.00,,,0.00,WUHU216DAVISVP2,2013-04-12 08:07:00,
2013-04-12 04:12:00,70.8,63.7,29.66,SW,236,2.0,4.0,78,0.00,,,0.00,WUHU216DAVISVP2,2013-04-12 08:12:00,
2013-04-12 04:17:00,70.8,63.7,29.66,ESE,107,4.0,4.0,78,0.00,,,0.00,WUHU216DAVISVP2,2013-04-12 08:17:00,
2013-04-12 04:22:00,70.8,63.7,29.66,East,79,0.0,4.0,78,0.00,,,0.00,WUHU216DAVISVP2,2013-04-12 08:22:00,
2013-04-12 04:27:00,70.8,63.7,29.66,SE,131,0.0,7.0,78,0.00,,,0.00,WUHU216DAVISVP2,2013-04-12 08:27:00,
2013-04-12 04:32:00,70.8,63.7,29.65,East,92,0.0,7.0,78,0.00,,,0.00,WUHU216DAVISVP2,2013-04-12 08:32:00,
2013-04-12 04:37:00,70.6,63.5,29.65,East,93,1.0,6.0,78,0.00,,,0.00,WUHU216DAVISVP2,2013-04-12 08:37:00,
2013-04-12 04:42:00,70.6,63.5,29.65,ESE,109,1.0,8.0,78,0.00,,,0.00,WUHU216DAVISVP2,2013-04-12 08:42:00,
2013-04-12 04:47:00,70.6,63.5,29.65,SE,144,0.0,8.0,78,0.00,,,0.00,WUHU216DAVISVP2,2013-04-12 08:47:00,
2013-04-12 04:52:00,70.6,63.5,29.65,SE,137,0.0,7.0,78,0.00,,,0.00,WUHU216DAVISVP2,2013-04-12 08:52:00,
2013-04-12 04:57:00,70.8,63.7,29.65,NNE,13,1.0,9.0,78,0.00,,,0.00,WUHU216DAVISVP2,2013-04-12 08:57:00,
2013-04-12 05:02:00,70.8,63.7,29.65,NNW,337,7.0,9.0,78,0.00,,,0.00,WUHU216DAVISVP2,2013-04-12 09:02:00,
2013-04-12 05:07:00,70.8,63.4,29.65,ESE,102,0.0,8.0,77,0.00,,,0.00,WUHU216DAVISVP2,2013-04-12 09:07:00,
2013-04-12 05:12:00,70.8,63.7,29.65,ESE,103,2.0,8.0,78,0.00,,,0.00,WUHU216DAVISVP2,2013-04-12 09:12:00,
2013-04-12 05:18:00,70.6,63.5,29.65,SSW,208,0.0,7.0,78,0.00,,,0.00,WUHU216DAVISVP2,2013-04-12 09:18:00,
2013-04-12 05:23:00,70.4,63.3,29.65,East,97,1.0,8.0,78,0.00,,,0.00,WUHU216DAVISVP2,2013-04-12 09:23:00,
2013-04-12 05:28:00,70.3,63.6,29.65,South,186,1.0,10.0,79,0.00,,,0.02,WUHU216DAVISVP2,2013-04-12 09:28:00,
2013-04-12 05:33:00,70.1,63.6,29.66,West,278,2.0,10.0,80,0.02,,,0.02,WUHU216DAVISVP2,2013-04-12 09:33:00,
2013-04-12 05:38:00,69.8,63.3,29.66,ENE,59,6.0,7.0,80,0.07,,,0.07,WUHU216DAVISVP2,2013-04-12 09:38:00,
2013-04-12 05:43:00,69.3,62.9,29.66,ESE,102,0.0,7.0,80,0.07,,,0.07,WUHU216DAVISVP2,2013-04-12 09:43:00,
2013-04-12 05:48:00,69.3,62.9,29.66,SE,124,0.0,6.0,80,0.09,,,0.09,WUHU216DAVISVP2,2013-04-12 09:48:00,
2013-04-12 05:53:00,68.9,63.6,29.66,North,0,1.0,1.0,83,0.10,,,0.10,WUHU216DAVISVP2,2013-04-12 09:53:00,
2013-04-12 05:58:00,68.9,63.9,29.66,SSE,150,0.0,1.0,84,0.10,,,0.10,WUHU216DAVISVP2,2013-04-12 09:58:00,
2013-04-12 06:03:00,68.8,63.8,29.64,SSW,208,0.0,6.0,84,0.10,,,0.10,WUHU216DAVISVP2,2013-04-12 10:03:00,
2013-04-12 06:08:00,68.8,63.8,29.64,SW,222,0.0,6.0,84,0.10,,,0.10,WUHU216DAVISVP2,2013-04-12 10:08:00,
2013-04-12 06:13:00,68.6,63.9,29.64,ESE,103,6.0,6.0,85,0.10,,,0.10,WUHU216DAVISVP2,2013-04-12 10:13:00,
2013-04-12 06:18:00,68.6,63.9,29.64,SSE,165,1.0,6.0,85,0.10,,,0.10,WUHU216DAVISVP2,2013-04-12 10:18:00,
2013-04-12 06:23:00,68.6,63.9,29.64,East,93,0.0,6.0,85,0.12,,,0.12,WUHU216DAVISVP2,2013-04-12 10:23:00,
2013-04-12 06:28:00,68.6,63.9,29.64,East,99,0.0,4.0,85,0.10,,,0.12,WUHU216DAVISVP2,2013-04-12 10:28:00,
2013-04-12 06:33:00,68.6,64.3,29.63,ESE,120,0.0,2.0,86,0.07,,,0.12,WUHU216DAVISVP2,2013-04-12 10:33:00,
2013-04-12 06:39:00,68.6,64.2,29.63,SE,138,1.0,2.0,86,0.05,,,0.12,WUHU216DAVISVP2,2013-04-12 10:39:00,
2013-04-12 06:44:00,68.6,64.2,29.63,SE,145,0.0,4.0,86,0.05,,,0.12,WUHU216DAVISVP2,2013-04-12 10:44:00,
2013-04-12 06:49:00,68.6,64.2,29.63,WNW,292,2.0,6.0,86,0.03,,,0.12,WUHU216DAVISVP2,2013-04-12 10:49:00,
2013-04-12 06:54:00,68.8,64.8,29.63,ESE,110,0.0,6.0,87,0.02,,,0.12,WUHU216DAVISVP2,2013-04-12 10:54:00,
2013-04-12 07:00:00,68.8,64.8,29.65,ENE,61,0.0,6.0,87,0.02,,,0.12,WUHU216DAVISVP2,2013-04-12 11:00:00,
2013-04-12 07:05:00,68.8,64.8,29.65,SW,234,2.0,6.0,87,0.02,,,0.18,WUHU216DAVISVP2,2013-04-12 11:05:00,
2013-04-12 07:10:00,68.8,64.8,29.65,WNW,301,0.0,6.0,87,0.11,,,0.21,WUHU216DAVISVP2,2013-04-12 11:10:00,
2013-04-12 07:15:00,68.8,64.8,29.66,WNW,301,0.0,6.0,87,0.11,,,0.21,WUHU216DAVISVP2,2013-04-12 11:15:00,
2013-04-12 07:20:00,68.9,65.2,29.66,SSW,196,1.0,11.0,88,0.32,,,0.44,WUHU216DAVISVP2,2013-04-12 11:20:00,
2013-04-12 07:25:00,68.9,65.2,29.66,SSE,164,0.0,11.0,88,0.32,,,0.44,WUHU216DAVISVP2,2013-04-12 11:25:00,
2013-04-12 07:30:00,68.9,65.2,29.65,WNW,287,0.0,1.0,88,0.32,,,0.44,WUHU216DAVISVP2,2013-04-12 11:30:00,
2013-04-12 07:35:00,68.9,65.2,29.65,ESE,113,2.0,4.0,88,0.32,,,0.44,WUHU216DAVISVP2,2013-04-12 11:35:00,
2013-04-12 07:40:00,68.8,65.1,29.65,SE,136,0.0,4.0,88,0.32,,,0.44,WUHU216DAVISVP2,2013-04-12 11:40:00,
2013-04-12 07:45:00,68.6,64.9,29.66,ESE,120,0.0,2.0,88,0.42,,,0.54,WUHU216DAVISVP2,2013-04-12 11:45:00,
2013-04-12 07:50:00,68.4,64.7,29.66,ESE,102,2.0,2.0,88,0.42,,,0.54,WUHU216DAVISVP2,2013-04-12 11:50:00,
2013-04-12 07:55:00,68.4,64.7,29.66,East,88,4.0,4.0,88,0.42,,,0.54,WUHU216DAVISVP2,2013-04-12 11:55:00,
2013-04-12 08:00:00,68.4,64.7,29.66,SSE,151,1.0,4.0,88,0.42,,,0.54,WUHU216DAVISVP2,2013-04-12 12:00:00,
2013-04-12 08:05:00,68.4,64.7,29.66,SSE,151,1.0,4.0,88,0.36,,,0.54,WUHU216DAVISVP2,2013-04-12 12:05:00,
2013-04-12 08:10:00,68.4,64.7,29.66,East,82,1.0,1.0,88,0.33,,,0.54,WUHU216DAVISVP2,2013-04-12 12:10:00,
2013-04-12 08:15:00,68.3,64.6,29.66,NE,56,1.0,4.0,88,0.36,,,0.57,WUHU216DAVISVP2,2013-04-12 12:15:00,
2013-04-12 08:20:00,68.3,64.6,29.66,NNE,23,4.0,4.0,88,0.13,,,0.57,WUHU216DAVISVP2,2013-04-12 12:20:00,
2013-04-12 08:25:00,68.3,64.6,29.66,NE,45,0.0,4.0,88,0.13,,,0.57,WUHU216DAVISVP2,2013-04-12 12:25:00,
2013-04-12 08:30:00,68.6,64.9,29.66,SE,133,4.0,4.0,88,0.13,,,0.57,WUHU216DAVISVP2,2013-04-12 12:30:00,
2013-04-12 08:35:00,68.8,65.1,29.66,SE,145,1.0,4.0,88,0.13,,,0.57,WUHU216DAVISVP2,2013-04-12 12:35:00,
2013-04-12 08:40:00,69.3,65.9,29.66,East,88,1.0,4.0,89,0.13,,,0.57,WUHU216DAVISVP2,2013-04-12 12:40:00,
2013-04-12 08:45:00,69.4,66.0,29.66,SSE,155,1.0,2.0,89,0.03,,,0.57,WUHU216DAVISVP2,2013-04-12 12:45:00,
2013-04-12 08:50:00,69.4,66.0,29.66,South,175,0.0,2.0,89,0.03,,,0.57,WUHU216DAVISVP2,2013-04-12 12:50:00,
2013-04-12 08:55:00,69.6,66.2,29.66,SE,137,0.0,8.0,89,0.03,,,0.57,WUHU216DAVISVP2,2013-04-12 12:55:00,
2013-04-12 09:00:00,69.8,66.4,29.65,SSW,206,1.0,8.0,89,0.03,,,0.57,WUHU216DAVISVP2,2013-04-12 13:00:00,
2013-04-12 09:05:00,69.8,66.4,29.65,East,100,0.0,4.0,89,0.03,,,0.57,WUHU216DAVISVP2,2013-04-12 13:05:00,
2013-04-12 09:10:00,69.8,66.4,29.65,SW,223,1.0,7.0,89,0.00,,,0.57,WUHU216DAVISVP2,2013-04-12 13:10:00,
2013-04-12 09:15:00,70.1,66.7,29.64,ESE,121,0.0,7.0,89,0.00,,,0.57,WUHU216DAVISVP2,2013-04-12 13:15:00,
2013-04-12 09:20:00,69.8,66.4,29.64,SE,133,0.0,4.0,89,0.00,,,0.57,WUHU216DAVISVP2,2013-04-12 13:20:00,
2013-04-12 09:25:00,69.8,66.4,29.64,SE,124,0.0,6.0,89,0.00,,,0.57,WUHU216DAVISVP2,2013-04-12 13:25:00,
2013-04-12 09:30:00,69.8,66.4,29.64,SW,215,4.0,6.0,89,0.00,,,0.57,WUHU216DAVISVP2,2013-04-12 13:30:00,
2013-04-12 09:35:00,69.8,66.4,29.64,SE,130,0.0,6.0,89,0.00,,,0.57,WUHU216DAVISVP2,2013-04-12 13:35:00,
2013-04-12 09:40:00,70.1,66.7,29.64,SE,130,0.0,4.0,89,0.00,,,0.57,WUHU216DAVISVP2,2013-04-12 13:40:00,
2013-04-12 09:45:00,70.1,66.7,29.64,SSE,151,0.0,2.0,89,0.00,,,0.57,WUHU216DAVISVP2,2013-04-12 13:45:00,
2013-04-12 09:50:00,69.9,66.5,29.64,WSW,241,1.0,9.0,89,0.00,,,0.57,WUHU216DAVISVP2,2013-04-12 13:50:00,
2013-04-12 09:55:00,70.1,67.0,29.64,South,169,1.0,9.0,90,0.00,,,0.57,WUHU216DAVISVP2,2013-04-12 13:55:00,
2013-04-12 10:00:00,70.6,67.5,29.64,WSW,239,1.0,9.0,90,0.00,,,0.57,WUHU216DAVISVP2,2013-04-12 14:00:00,
2013-04-12 10:05:00,70.6,67.5,29.64,ESE,120,0.0,9.0,90,0.00,,,0.57,WUHU216DAVISVP2,2013-04-12 14:05:00,
2013-04-12 10:10:00,70.6,67.2,29.64,SE,124,0.0,8.0,89,0.00,,,0.57,WUHU216DAVISVP2,2013-04-12 14:10:00,
2013-04-12 10:15:00,70.4,67.0,29.64,NNE,23,2.0,4.0,89,0.00,,,0.57,WUHU216DAVISVP2,2013-04-12 14:15:00,
2013-04-12 10:20:00,70.4,67.0,29.64,WSW,243,2.0,7.0,89,0.00,,,0.57,WUHU216DAVISVP2,2013-04-12 14:20:00,
2013-04-12 10:25:00,71.1,67.7,29.64,ESE,121,0.0,7.0,89,0.00,,,0.57,WUHU216DAVISVP2,2013-04-12 14:25:00,
2013-04-12 10:30:00,71.5,68.1,29.63,ESE,123,0.0,6.0,89,0.00,,,0.57,WUHU216DAVISVP2,2013-04-12 14:30:00,
2013-04-12 10:35:00,72.0,68.6,29.63,ESE,112,4.0,7.0,89,0.00,,,0.57,WUHU216DAVISVP2,2013-04-12 14:35:00,
2013-04-12 10:40:00,72.0,68.3,29.63,NE,40,1.0,7.0,88,0.00,,,0.57,WUHU216DAVISVP2,2013-04-12 14:40:00,
2013-04-12 10:45:00,72.1,68.3,29.63,SE,145,1.0,6.0,88,0.00,,,0.57,WUHU216DAVISVP2,2013-04-12 14:45:00,
2013-04-12 10:50:00,72.3,68.5,29.63,South,176,0.0,6.0,88,0.00,,,0.57,WUHU216DAVISVP2,2013-04-12 14:50:00,
2013-04-12 10:55:00,72.5,68.7,29.63,West,271,1.0,4.0,88,0.00,,,0.57,WUHU216DAVISVP2,2013-04-12 14:55:00,
2013-04-12 11:00:00,72.3,67.9,29.63,ESE,117,0.0,4.0,86,0.00,,,0.57,WUHU216DAVISVP2,2013-04-12 15:00:00,
2013-04-12 11:05:00,72.3,67.9,29.63,SSW,192,0.0,8.0,86,0.00,,,0.57,WUHU216DAVISVP2,2013-04-12 15:05:00,
2013-04-12 11:10:00,72.7,68.3,29.63,NE,56,1.0,8.0,86,0.00,,,0.57,WUHU216DAVISVP2,2013-04-12 15:10:00,
2013-04-12 11:15:00,72.7,68.0,29.63,ESE,116,4.0,9.0,85,0.00,,,0.57,WUHU216DAVISVP2,2013-04-12 15:15:00,
2013-04-12 11:20:00,72.7,67.6,29.63,South,182,2.0,9.0,84,0.00,,,0.57,WUHU216DAVISVP2,2013-04-12 15:20:00,
2013-04-12 11:25:00,73.0,67.9,29.63,ESE,102,2.0,6.0,84,0.00,,,0.57,WUHU216DAVISVP2,2013-04-12 15:25:00,